Location: Gleizolles
(44.4833°N, 6.7667°E)
Time: 15:39:31
(UTC+00:00)

RS-15 - Pass Details

Date: 07 December 2022
Orbit: 1883 x 2162 km, 64.8° (Epoch: 05 February)

Event Time Altitude Azimuth Distance (km) Brightness Sun altitude
Rises 17:09:34 0° 313° (NW) 5,695 10.9 -13.1°
Reaches altitude 10° 17:13:34 10° 322° (NW) 4,681 10.3 -13.8°
Maximum altitude 17:24:49 39° 28° (NNE) 2,910 8.6 -15.7°
Enters shadow 17:32:08 21° 83° (E) 3,724 8.9 -17.0°
